[[{"header":{"parameterUnit":"m.s-1","parameterCategory":1,"la1":30.2991,"la2":30.254,"lo1":-89.0895,"lo2":-89.0444,"dx":0.0017,"dy":0.0017,"nx":28,"ny":28,"refTime":"2022-11-16T09:00:00:Z","depth":0,"parameterNumber":2,"parameterNumberName":"U-component_of_WINDS"},"data":[0,0,0,0,0,0,0,0,0,0,0,0,0,0,0,0,0,0,0,0,0,0,0,0,0,0,0,0,0,0,0,0,0,0,0,0,0,0,0,0,0,0,0,0,0,0,0,0,0,0,0,0,0,0,0,0,0,0,-0.2081,-0.2082,0,-0.2134,-0.2134,-0.2135,-0.2128,-0.2127,-0.2126,-0.2125,-0.2181,-0.2183,-0.2185,0,0,0,0,0,0,0,0,0,0,0,0,0,-0.1974,-0.1976,-0.2081,-0.2082,-0.2082,-0.2134,-0.2134,-0.2135,-0.2128,-0.2127,-0.2126,-0.2125,-0.218,-0.2183,-0.2186,0,0,0,0,0,0,0,0,0,0,0,0,0,-0.2023,-0.1977,-0.2081,-0.2085,-0.2086,-0.2134,-0.2134,-0.2135,-0.2128,-0.2127,-0.2126,-0.2125,-0.2179,-0.2183,-0.2186,-0.2233,0,0,-0.2196,-0.2198,0,0,0,0,0,0,0,0,-0.202,-0.2027,-0.2084,-0.2085,-0.2086,-0.2123,-0.2117,-0.2168,-0.2129,-0.2112,-0.2125,-0.2124,-0.2163,-0.2167,-0.218,-0.2236,-0.2238,-0.2197,-0.2199,-0.22,-0.2201,0,0,0,0,0,0,0,-0.2017,-0.2025,-0.2102,-0.2084,-0.2086,-0.2084,-0.209,-0.2127,-0.2144,-0.2114,-0.2113,-0.212,-0.2163,-0.2177,-0.2182,-0.2239,-0.2197,-0.22,-0.2202,-0.2203,-0.2335,-0.2336,0,0,0,0,0,0,-0.2012,-0.2022,-0.21,-0.2103,-0.2049,-0.2087,-0.2093,-0.2112,-0.2144,-0.2147,-0.2121,-0.2119,-0.2172,-0.2178,-0.2183,-0.224,-0.22,-0.2204,-0.2205,-0.2334,-0.2335,-0.2337,0,0,0,0,0,0,-0.201,-0.2019,-0.2098,-0.2063,-0.2072,-0.209,-0.2112,-0.2114,-0.2128,-0.2149,-0.2152,-0.2132,-0.2171,-0.2179,-0.2221,-0.2242,-0.2205,-0.2208,-0.2332,-0.2334,-0.2336,-0.2355,0,0,0,0,0,0,-0.2007,-0.2019,-0.2037,-0.2063,-0.2074,-0.2135,-0.2113,-0.2116,-0.2134,-0.2132,-0.216,-0.2164,-0.2171,-0.2216,-0.2224,-0.2246,-0.2211,-0.233,-0.2333,-0.2335,-0.2353,-0.2358,-0.2362,0,0,0,0,0,-0.2003,-0.2041,-0.2038,-0.2047,-0.2098,-0.2136,-0.2142,-0.2149,-0.2136,-0.2154,-0.2167,-0.2163,-0.2238,-0.222,-0.2229,-0.2253,-0.2329,-0.2332,-0.2335,-0.2351,-0.2357,-0.2362,0,0,0,0,0,0,-0.2018,-0.2044,-0.2041,-0.2089,-0.211,-0.2134,-0.2158,-0.2156,-0.2182,-0.2179,-0.2187,-0.2193,-0.2235,-0.2248,-0.2227,-0.23,-0.2282,-0.2287,-0.229,-0.2296,-0.2301,-0.2297,-0.2214,0,0,0,0,0,-0.2026,-0.2055,-0.2076,-0.2116,-0.2127,-0.214,-0.2157,-0.2161,-0.2183,-0.2192,-0.2209,-0.2231,-0.2259,-0.2278,-0.2306,-0.2354,-0.236,-0.2375,-0.238,-0.2383,-0.2388,-0.2413,-0.242,-0.2348,-0.2348,-0.2347,0,0,-0.2044,-0.2062,-0.208,-0.2119,-0.2136,-0.2165,-0.2148,-0.218,-0.2202,-0.2197,-0.2238,-0.225,-0.2276,-0.2321,-0.2341,-0.2333,-0.2409,-0.2387,-0.239,-0.2393,-0.2417,-0.2424,-0.243,-0.235,-0.2349,-0.2349,0,0,-0.2093,-0.2109,-0.2143,-0.216,-0.2186,-0.2194,-0.2202,-0.2227,-0.2235,-0.2276,-0.2272,-0.2298,-0.2348,-0.2365,-0.2381,-0.2434,-0.243,-0.2442,-0.2467,-0.2492,-0.2498,-0.2503,-0.2521,-0.2528,-0.2447,-0.2447,-0.2447,0,-0.2112,-0.2156,-0.2162,-0.2194,-0.2211,-0.2206,-0.2241,-0.2257,-0.229,-0.2302,-0.2292,-0.2353,-0.237,-0.2418,-0.2431,-0.2444,-0.2453,-0.244,-0.2496,-0.2501,-0.2506,-0.2524,-0.2531,-0.2448,-0.2448,-0.2448,-0.2448,0,-0.2179,-0.2209,-0.2234,-0.2265,-0.2285,-0.2318,-0.2328,-0.2347,-0.2348,-0.2358,-0.2398,-0.2418,-0.2449,-0.2461,-0.2462,-0.2509,-0.2503,-0.2494,-0.2476,-0.2514,-0.2531,-0.2538,-0.245,-0.245,-0.2449,-0.2449,0,0,-0.2239,-0.2272,-0.2281,-0.2294,-0.2321,-0.2345,-0.2377,-0.2407,-0.2423,-0.2445,-0.2473,-0.2514,-0.2505,-0.2523,-0.2526,-0.2548,-0.2588,-0.2536,-0.2537,-0.2545,-0.264,-0.2646,-0.2654,-0.2585,-0.2586,-0.2587,-0.2638,0,-0.229,-0.2347,-0.2352,-0.2404,-0.2431,-0.2427,-0.2455,-0.2474,-0.2484,-0.2508,-0.2519,-0.2548,-0.2535,-0.2545,-0.2566,-0.2578,-0.2607,-0.2575,-0.2611,-0.2612,-0.2605,-0.2663,-0.267,-0.2717,-0.2644,-0.2645,-0.2646,0,-0.2357,-0.2381,-0.2435,-0.2456,-0.2468,-0.2494,-0.252,-0.2544,-0.2566,-0.2571,-0.2589,-0.2589,-0.2622,-0.2602,-0.2648,-0.2626,-0.264,-0.2648,-0.265,-0.2654,-0.2632,-0.2669,-0.2732,-0.2739,-0.2657,-0.2656,-0.2655,0,-0.2396,-0.2441,-0.2479,-0.2491,-0.2517,-0.2535,-0.2546,-0.2566,-0.2583,-0.2607,-0.2618,-0.2645,-0.266,-0.268,-0.2687,-0.2672,-0.2732,-0.2713,-0.2737,-0.2737,-0.2751,-0.275,-0.2818,-0.276,-0.276,-0.276,-0.276,0,-0.2452,-0.2485,-0.2496,-0.252,-0.2556,-0.2561,-0.2597,-0.2608,-0.2626,-0.2651,-0.2648,-0.2672,-0.268,-0.2705,-0.271,-0.2747,-0.2753,-0.2758,-0.276,-0.2759,-0.2758,-0.2769,-0.2766,-0.2762,-0.2761,-0.2761,-0.276,0,-0.2502,-0.251,-0.2551,-0.2572,-0.2578,-0.2604,-0.2622,-0.2644,-0.2652,-0.2684,-0.2692,-0.2705,-0.2734,-0.2743,-0.2778,-0.2781,-0.2824,-0.2822,-0.2817,-0.2817,-0.2841,-0.2838,-0.2918,-0.2928,-0.2864,-0.2864,-0.2865,0,-0.2537,-0.2563,-0.2586,-0.2602,-0.2614,-0.2641,-0.2658,-0.2663,-0.2681,-0.2706,-0.2725,-0.2754,-0.2777,-0.2823,-0.2836,-0.2862,-0.2861,-0.2887,-0.2865,-0.2863,-0.2861,-0.286,-0.2862,-0.2891,-0.2892,-0.2892,-0.2893,0,-0.26,-0.2602,-0.2627,-0.2652,-0.2672,-0.2693,-0.2712,-0.2726,-0.2734,-0.2754,-0.2783,-0.2801,-0.2836,-0.2864,-0.289,-0.2902,-0.2899,-0.2899,-0.2906,-0.2906,-0.2902,-0.2904,-0.2828,-0.2898,-0.2897,-0.2897,-0.2897,-0.2897,-0.2643,-0.2665,-0.2684,-0.2711,-0.2726,-0.2744,-0.2766,-0.2776,-0.2801,-0.2829,-0.2831,-0.2862,-0.2881,-0.2917,-0.293,-0.2954,-0.2947,-0.2957,-0.296,-0.2962,-0.2964,-0.2897,-0.2959,-0.2959,-0.2959,-0.2959,-0.2959,0,-0.2705,-0.2717,-0.2742,-0.2769,-0.279,-0.2784,-0.2805,-0.2823,-0.285,-0.2868,-0.2891,-0.2923,-0.295,-0.2964,-0.2991,-0.3007,-0.3006,-0.3014,-0.3013,-0.3016,-0.2969,-0.2961,-0.3014,-0.3014,-0.3014,-0.3014,-0.3014,-0.3014,-0.274,-0.2776,-0.2781,-0.2824,-0.2836,-0.2866,-0.2879,-0.2895,-0.2909,-0.2946,-0.2968,-0.2976,-0.2993,-0.302,-0.3044,-0.3047,-0.3057,-0.3066,-0.3068,-0.3025,-0.3019,-0.3014,-0.3006,-0.3068,-0.3068,-0.3113,-0.3113,-0.3114]},{"header":{"parameterUnit":"m.s-1","parameterCategory":1,"la1":30.2991,"la2":30.254,"lo1":-89.0895,"lo2":-89.0444,"dx":0.0017,"dy":0.0017,"nx":28,"ny":28,"refTime":"2022-11-16T09:00:00:Z","depth":0,"parameterNumber":3,"parameterNumberName":"V-component_of_WINDS"},"data":[0,0,0,0,0,0,0,0,0,0,0,0,0,0,0,0,0,0,0,0,0,0,0,0,0,0,0,0,0,0,0,0,0,0,0,0,0,0,0,0,0,0,0,0,0,0,0,0,0,0,0,0,0,0,0,0,0,0,-4.8252,-4.8253,0,-4.8346,-4.8347,-4.8348,-4.8304,-4.8302,-4.8299,-4.8297,-4.8389,-4.8393,-4.8398,0,0,0,0,0,0,0,0,0,0,0,0,0,-4.8028,-4.8033,-4.8252,-4.8253,-4.8254,-4.8346,-4.8347,-4.8348,-4.8304,-4.8302,-4.8299,-4.8296,-4.8387,-4.8392,-4.8398,0,0,0,0,0,0,0,0,0,0,0,0,0,-4.8124,-4.8034,-4.8252,-4.8244,-4.8244,-4.8346,-4.8347,-4.8349,-4.8305,-4.8302,-4.8298,-4.8295,-4.8385,-4.8392,-4.8399,-4.8513,0,0,-4.842,-4.8423,0,0,0,0,0,0,0,0,-4.8119,-4.8132,-4.8244,-4.8244,-4.8245,-4.831,-4.8302,-4.8404,-4.8306,-4.8282,-4.8297,-4.8293,-4.8365,-4.8373,-4.8399,-4.8517,-4.8521,-4.8421,-4.8425,-4.8428,-4.843,0,0,0,0,0,0,0,-4.8112,-4.8128,-4.8289,-4.8245,-4.8246,-4.8233,-4.8243,-4.8321,-4.8342,-4.8283,-4.8281,-4.8293,-4.8364,-4.8392,-4.84,-4.8522,-4.842,-4.8427,-4.8431,-4.8434,-4.8736,-4.874,0,0,0,0,0,0,-4.8106,-4.8123,-4.8286,-4.8292,-4.8172,-4.824,-4.8251,-4.8292,-4.8341,-4.8345,-4.8295,-4.829,-4.8382,-4.8392,-4.8403,-4.8538,-4.8428,-4.8434,-4.8438,-4.8733,-4.8737,-4.8741,0,0,0,0,0,0,-4.8102,-4.8121,-4.8282,-4.8207,-4.8226,-4.8248,-4.8295,-4.8296,-4.8324,-4.835,-4.8353,-4.832,-4.8379,-4.8394,-4.8486,-4.8541,-4.8437,-4.8444,-4.8728,-4.8734,-4.8739,-4.8811,0,0,0,0,0,0,-4.8096,-4.812,-4.8165,-4.8208,-4.823,-4.8365,-4.8298,-4.8301,-4.8336,-4.833,-4.8374,-4.8378,-4.8378,-4.8476,-4.8493,-4.8549,-4.8449,-4.8723,-4.8731,-4.8737,-4.8803,-4.8818,-4.8831,0,0,0,0,0,-4.8088,-4.8181,-4.8168,-4.8188,-4.8287,-4.8368,-4.8381,-4.8381,-4.8341,-4.8385,-4.8402,-4.8376,-4.8533,-4.8485,-4.8504,-4.8563,-4.872,-4.8729,-4.8737,-4.8797,-4.8815,-4.883,0,0,0,0,0,0,-4.8143,-4.8186,-4.8172,-4.8282,-4.8322,-4.8361,-4.8417,-4.84,-4.845,-4.8442,-4.8438,-4.8448,-4.8543,-4.8562,-4.8509,-4.8675,-4.862,-4.8633,-4.8659,-4.8676,-4.869,-4.8682,-4.8455,0,0,0,0,0,-4.8168,-4.8232,-4.8266,-4.8359,-4.838,-4.8395,-4.8431,-4.8427,-4.8467,-4.8483,-4.8507,-4.8545,-4.8603,-4.8641,-4.8695,-4.8806,-4.8813,-4.8856,-4.8869,-4.888,-4.8891,-4.8949,-4.8967,-4.877,-4.877,-4.877,0,0,-4.822,-4.8252,-4.8292,-4.8371,-4.8402,-4.8466,-4.841,-4.848,-4.8527,-4.8493,-4.8582,-4.86,-4.8643,-4.8744,-4.879,-4.8763,-4.8947,-4.8891,-4.89,-4.8905,-4.896,-4.8978,-4.8995,-4.8776,-4.8775,-4.8774,0,0,-4.8347,-4.8379,-4.846,-4.8491,-4.8538,-4.8548,-4.8567,-4.8608,-4.862,-4.8709,-4.8684,-4.8739,-4.8838,-4.8869,-4.8898,-4.9036,-4.9013,-4.9054,-4.9125,-4.9181,-4.9196,-4.921,-4.9258,-4.9275,-4.9064,-4.9065,-4.9065,0,-4.8406,-4.8504,-4.8503,-4.8576,-4.861,-4.8584,-4.8664,-4.8694,-4.8756,-4.8779,-4.8749,-4.8872,-4.8899,-4.9006,-4.904,-4.9065,-4.9085,-4.9048,-4.9195,-4.9208,-4.9221,-4.9266,-4.9284,-4.9069,-4.9069,-4.9068,-4.9068,0,-4.8572,-4.864,-4.8699,-4.8761,-4.8802,-4.8878,-4.8887,-4.8928,-4.892,-4.8932,-4.9022,-4.9053,-4.9112,-4.9138,-4.9131,-4.9244,-4.9225,-4.9195,-4.9139,-4.9244,-4.9287,-4.9304,-4.9076,-4.9074,-4.9073,-4.9071,0,0,-4.8737,-4.8797,-4.8818,-4.8845,-4.8895,-4.8946,-4.902,-4.9079,-4.9114,-4.9157,-4.9217,-4.9302,-4.9274,-4.9306,-4.9302,-4.9352,-4.9457,-4.9315,-4.9316,-4.9339,-4.958,-4.9602,-4.9622,-4.9442,-4.9446,-4.9448,-4.9576,0,-4.8867,-4.8998,-4.8999,-4.9119,-4.918,-4.9155,-4.9219,-4.9255,-4.9267,-4.9319,-4.9332,-4.9392,-4.9351,-4.937,-4.9419,-4.9434,-4.9505,-4.9425,-4.9496,-4.9499,-4.9485,-4.9645,-4.9668,-4.9788,-4.9593,-4.9596,-4.9598,0,-4.9036,-4.9086,-4.9212,-4.9251,-4.9277,-4.9334,-4.9388,-4.9439,-4.9478,-4.9484,-4.952,-4.9508,-4.958,-4.9523,-4.9622,-4.9567,-4.9596,-4.9608,-4.9612,-4.9618,-4.9554,-4.9653,-4.9826,-4.9843,-4.9624,-4.9622,-4.962,0,-4.9142,-4.924,-4.9328,-4.9352,-4.94,-4.9441,-4.9462,-4.9498,-4.9533,-4.958,-4.9602,-4.9656,-4.9685,-4.9725,-4.9727,-4.9686,-4.9826,-4.9769,-4.983,-4.9831,-4.986,-4.9858,-5.0039,-4.9882,-4.9881,-4.9881,-4.9881,0,-4.9286,-4.9364,-4.9376,-4.943,-4.9515,-4.9514,-4.9598,-4.9616,-4.9648,-4.9703,-4.9684,-4.9736,-4.9736,-4.9788,-4.979,-4.987,-4.9884,-4.9888,-4.9887,-4.9889,-4.9889,-4.9907,-4.9898,-4.9886,-4.9885,-4.9884,-4.9883,0,-4.9418,-4.943,-4.9523,-4.9561,-4.9572,-4.9634,-4.9665,-4.9715,-4.9726,-4.9795,-4.9812,-4.9828,-4.9888,-4.9894,-4.9964,-4.9965,-5.0061,-5.0052,-5.0048,-5.0046,-5.0106,-5.01,-5.0304,-5.033,-5.0158,-5.0159,-5.0161,0,-4.9509,-4.9568,-4.9613,-4.9649,-4.9673,-4.9732,-4.9768,-4.9768,-4.9806,-4.9855,-4.9898,-4.9957,-5.0004,-5.0101,-5.0117,-5.017,-5.0161,-5.0229,-5.0168,-5.0168,-5.016,-5.0156,-5.0161,-5.024,-5.0242,-5.0243,-5.0245,0,-4.9668,-4.9671,-4.9724,-4.9779,-4.9823,-4.9866,-4.9906,-4.9936,-4.9942,-4.9985,-5.0047,-5.0083,-5.0154,-5.0212,-5.0263,-5.0283,-5.0264,-5.0264,-5.028,-5.0282,-5.0277,-5.0279,-5.0078,-5.0259,-5.0257,-5.0256,-5.0256,-5.0255,-4.9781,-4.9832,-4.9871,-4.993,-4.9961,-4.9999,-5.0047,-5.0064,-5.0116,-5.0175,-5.0172,-5.024,-5.0275,-5.0343,-5.0366,-5.0418,-5.0395,-5.0419,-5.0425,-5.0431,-5.0436,-5.027,-5.0427,-5.0427,-5.0427,-5.0426,-5.0426,0,-4.9938,-4.9962,-5.0017,-5.0074,-5.012,-5.01,-5.0143,-5.0182,-5.0243,-5.0278,-5.0325,-5.0395,-5.045,-5.0471,-5.0525,-5.0562,-5.0554,-5.0575,-5.0572,-5.0576,-5.0455,-5.0434,-5.0581,-5.058,-5.058,-5.058,-5.058,-5.058,-5.0025,-5.011,-5.0116,-5.0215,-5.0237,-5.0305,-5.0331,-5.0364,-5.0393,-5.0472,-5.0519,-5.0532,-5.0561,-5.0616,-5.0666,-5.067,-5.069,-5.0714,-5.0715,-5.0601,-5.0585,-5.057,-5.0551,-5.0719,-5.0719,-5.0832,-5.0833,-5.0834]}]]